Location: Unspecified
(42.3650°N, 71.1030°W)
Time: 12:42:22
(UTC+00:00)

Courier 1B - Pass Details

Date: 27 June 2024
Orbit: 962 x 1209 km, 28.3° (Epoch: 25 July)

Event Time Altitude Azimuth Distance (km) Brightness Sun altitude
Rises 04:12:48 0° 236° (SW) 3,702 - -23.8°
Reaches altitude 10° 04:15:57 10° 223° (SW) 2,787 - -23.9°
Maximum altitude 04:21:10 24° 172° (S) 2,021 - -24.1°
Drops below altitude 10° 04:26:37 10° 122° (ESE) 2,926 - -24.2°
Sets 04:30:01 0° 109° (ESE) 3,930 - -24.2°
